Weather in Houma

United States     29°35′53″N   90°42′58″W
В апреле 2022 года жителям России запретили посещать сайт meteo.paraplan.net по решению Генеральной прокуратуры. Аудитория сайта уменьшилась в 10 раз. Владельцы сайта не видят смысла в поддержке погодного сервера в таких условиях. Сайт будет закрыт в октябре.
temp.,
°C
wind,
m/s
gust,
m/s
humid.,
%
clouds,
%
prec.,
mm/h
press.,
hPa
HPBL,
m
4 october, tue
tue401:00+19ne348058 0.0 101778
04:00+18ne229285 0.0 101735
07:00+18ne229187 0.0 101726
10:00+24e236299 0.0 1019705
13:00+28ese3346100 0.0 10172053
16:00+26ese2356100 0.0 1015311
19:00+23ese2574100 0.2 1016153
22:00+20se228438 0.0 101744
5 october, wed
wed501:00+19ese22875 0.0 101731
04:00+18e22875 0.0 101719
07:00+18ne22875 0.0 101817
10:00+25e23555 0.0 1019773
13:00+29e33415 0.0 10182057
16:00+30e233623 0.0 10152331
19:00+24ssw2462100 0.0 101797
22:00+21ssw22744 0.0 101817
6 october, thu
thu601:00+21sw127451 0.0 101825
04:00+19nnw11814 0.0 101811
07:00+18n11820 0.0 101911
10:00+26nnw22552 0.0 1021536
13:00+30n2237100 0.0 10192293
16:00+31nw123314 0.0 10172495
19:00+23ssw246521 0.0 101985
22:00+21sw347377 0.0 102070
7 october, fri
fri701:00+20w227856 0.0 102014
04:00+19w228226 0.0 102025
07:00+19nw118798 0.0 102111
10:00+26nw225164 0.0 1022385
13:00+30nne233397 0.0 10201814
16:00+31ne332999 0.0 10182215
19:00+23s2255100 0.0 101935
22:00+21wsw2264100 0.0 102114
8 october, sat
sat801:00+20wnw2262100 0.0 102130
04:00+20n2255100 0.0 102024
07:00+20nne376395 0.0 1021159
10:00+25ne464817 0.0 1023413
13:00+30ne453293 0.0 10211399
16:00+30ne553092 0.0 10191885
19:00+24e22495 0.0 102024
22:00+21nne23581 0.0 102235